Weather History for Brownwood, TX

Change the Weather History Date:

Thursday, March 28, 2013

  Actual Average (KABI) Record (KABI)
Temperature  
Mean Temperature 60 °F 60 °F  
Max Temperature 75 °F 72 °F 96 °F (1928)
Min Temperature 46 °F 47 °F 23 °F (1931)
Degree Days  
Heating Degree Days 4 7  
Month to date heating degree days 278  
Since 1 July heating degree days 2411  
Cooling Degree Days 0 2  
Month to date cooling degree days 24  
Year to date cooling degree days 29  
Growing Degree Days 10 (Base 50)    
Moisture  
Dew Point 50 °F    
Average Humidity 70    
Maximum Humidity 94    
Minimum Humidity 44    
Precipitation  
Precipitation 0.00 in 0.06 in 1.77 in (1897)
Month to date precipitation 1.58  
Year to date precipitation 3.96  
Sea Level Pressure  
Sea Level Pressure 30.12 in    
Wind  
Wind Speed 10 mph (SSE)    
Max Wind Speed 18 mph    
Max Gust Speed 29 mph    
Visibility 10 miles    
Events      
T = Trace of Precipitation, MM = Missing Value Source: NWS Daily Summary

Daily Weather History Graph

Daily Weather History Graph

Search for Another Location

Airport:

Trip Planner

Search our weather history database for the weather conditions in past years. The results will help you decide how hot, cold, wet, or windy it might be!

Date:

Astronomy

Mar. 28, 2013 Rise Set
Actual Time 7:29 AM CDT 7:52 PM CDT
Civil Twilight 7:04 AM CDT 8:17 PM CDT
Nautical Twilight 6:35 AM CDT 8:46 PM CDT
Astronomical Twilight 6:06 AM CDT 9:15 PM CDT
Moon 9:37 PM CDT (3/28) 8:05 AM CDT (3/28)
Length of Visible Light 13h 12m
Length of Day
12h 23m
Full, 98% of the Moon is Illuminated
Mar 28
Full
Apr 2
Last Quarter
Apr 10
New
Apr 18
First Quarter
Apr 25
Full

Hourly Weather History & Observations

Time (CDT) Temp. Windchill Dew Point Humidity Pressure Visibility Wind Dir Wind Speed Gust Speed Precip Events Conditions
12:15 AM 57.2 °F - 44.6 °F 63% 30.14 in 10.0 mi South 9.2 mph - N/A   Clear
12:35 AM 55.4 °F - 44.6 °F 67% 30.14 in 10.0 mi South 6.9 mph - N/A   Clear
12:55 AM 55.4 °F - 44.6 °F 67% 30.14 in 10.0 mi South 6.9 mph - N/A   Clear
1:15 AM 55.4 °F - 44.6 °F 67% 30.13 in 10.0 mi South 8.1 mph - N/A   Clear
1:35 AM 53.6 °F - 44.6 °F 72% 30.13 in 10.0 mi SSE 5.8 mph - N/A   Clear
1:55 AM 53.6 °F - 44.6 °F 72% 30.13 in 10.0 mi SSE 5.8 mph - N/A   Clear
2:15 AM 51.8 °F - 44.6 °F 76% 30.13 in 10.0 mi SSE 6.9 mph - N/A   Clear
2:35 AM 50.0 °F - 44.6 °F 82% 30.13 in 10.0 mi SSE 6.9 mph - N/A   Clear
2:55 AM 50.0 °F - 44.6 °F 82% 30.13 in 10.0 mi SSE 5.8 mph - N/A   Partly Cloudy
3:15 AM 50.0 °F - 42.8 °F 76% 30.13 in 10.0 mi SE 5.8 mph - N/A   Clear
3:35 AM 48.2 °F - 42.8 °F 82% 30.12 in 10.0 mi SE 6.9 mph - N/A   Clear
3:55 AM 48.2 °F - 42.8 °F 82% 30.11 in 10.0 mi SE 6.9 mph - N/A   Partly Cloudy
4:15 AM 46.4 °F 42.9 °F 42.8 °F 87% 30.11 in 10.0 mi SE 6.9 mph - N/A   Partly Cloudy
4:35 AM 46.4 °F 42.9 °F 44.6 °F 93% 30.12 in 10.0 mi SE 6.9 mph - N/A   Scattered Clouds
4:55 AM 46.4 °F 42.9 °F 42.8 °F 87% 30.12 in 10.0 mi SE 6.9 mph - N/A   Scattered Clouds
5:15 AM 46.4 °F 42.9 °F 42.8 °F 87% 30.12 in 10.0 mi SE 6.9 mph - N/A   Partly Cloudy
5:35 AM 46.4 °F 43.5 °F 42.8 °F 87% 30.12 in 10.0 mi SSE 5.8 mph - N/A   Partly Cloudy
5:55 AM 46.4 °F 43.5 °F 44.6 °F 93% 30.12 in 10.0 mi SSE 5.8 mph - N/A   Scattered Clouds
6:15 AM 48.2 °F - 44.6 °F 87% 30.11 in 10.0 mi SSE 8.1 mph - N/A   Mostly Cloudy
6:35 AM 48.2 °F - 44.6 °F 87% 30.12 in 10.0 mi SE 6.9 mph - N/A   Mostly Cloudy
6:55 AM 48.2 °F - 46.4 °F 93% 30.12 in 10.0 mi SSE 8.1 mph - N/A   Scattered Clouds
7:15 AM 48.2 °F - 46.4 °F 93% 30.13 in 10.0 mi SSE 9.2 mph - N/A   Clear
7:35 AM 48.2 °F - 46.4 °F 93% 30.13 in 10.0 mi SSE 9.2 mph - N/A   Clear
7:55 AM 48.2 °F - 46.4 °F 93% 30.14 in 10.0 mi SSE 6.9 mph - N/A   Scattered Clouds
8:15 AM 50.0 °F - 48.2 °F 94% 30.15 in 10.0 mi SSE 9.2 mph - N/A   Overcast
8:35 AM 51.8 °F - 48.2 °F 88% 30.15 in 10.0 mi SSE 9.2 mph - N/A   Overcast
8:55 AM 53.6 °F - 48.2 °F 82% 30.16 in 10.0 mi SSE 9.2 mph - N/A   Overcast
9:15 AM 55.4 °F - 50.0 °F 82% 30.16 in 10.0 mi SSE 8.1 mph - N/A   Overcast
9:35 AM 55.4 °F - 50.0 °F 82% 30.16 in 10.0 mi SSE 9.2 mph - N/A   Overcast
9:55 AM 57.2 °F - 50.0 °F 77% 30.17 in 10.0 mi South 9.2 mph - N/A   Overcast
10:15 AM 59.0 °F - 50.0 °F 72% 30.17 in 10.0 mi South 15.0 mph 24.2 mph N/A   Overcast
10:35 AM 59.0 °F - 50.0 °F 72% 30.17 in 10.0 mi South 9.2 mph - N/A   Overcast
10:55 AM 59.0 °F - 50.0 °F 72% 30.17 in 10.0 mi SSE 9.2 mph - N/A   Overcast
11:15 AM 62.6 °F - 51.8 °F 68% 30.17 in 10.0 mi SSE 11.5 mph 17.3 mph N/A   Overcast
11:35 AM 62.6 °F - 51.8 °F 68% 30.16 in 10.0 mi South 15.0 mph - N/A   Overcast
11:55 AM 64.4 °F - 51.8 °F 64% 30.16 in 10.0 mi South 12.7 mph 25.3 mph N/A   Overcast
12:15 PM 66.2 °F - 51.8 °F 60% 30.15 in 10.0 mi South 16.1 mph 20.7 mph N/A   Overcast
12:35 PM 66.2 °F - 53.6 °F 64% 30.16 in 10.0 mi South 13.8 mph 21.9 mph N/A   Overcast
12:55 PM 66.2 °F - 53.6 °F 64% 30.16 in 10.0 mi South 10.4 mph - N/A   Overcast
1:15 PM 66.2 °F - 53.6 °F 64% 30.15 in 10.0 mi SSE 11.5 mph - N/A   Overcast
1:35 PM 68.0 °F - 53.6 °F 60% 30.14 in 10.0 mi South 12.7 mph - N/A   Overcast
1:55 PM 68.0 °F - 53.6 °F 60% 30.13 in 10.0 mi South 11.5 mph - N/A   Overcast
2:15 PM 69.8 °F - 53.6 °F 56% 30.12 in 10.0 mi South 15.0 mph 23.0 mph N/A   Overcast
2:35 PM 71.6 °F - 53.6 °F 53% 30.11 in 10.0 mi South 15.0 mph 20.7 mph N/A   Overcast
2:55 PM 71.6 °F - 51.8 °F 50% 30.11 in 10.0 mi South 18.4 mph 21.9 mph N/A   Overcast
3:15 PM 73.4 °F - 51.8 °F 47% 30.10 in 10.0 mi South 13.8 mph 25.3 mph N/A   Overcast
3:35 PM 75.2 °F - 51.8 °F 44% 30.09 in 10.0 mi South 15.0 mph 23.0 mph N/A   Mostly Cloudy
3:55 PM 75.2 °F - 51.8 °F 44% 30.08 in 10.0 mi South 15.0 mph 20.7 mph N/A   Scattered Clouds
4:15 PM 73.4 °F - 51.8 °F 47% 30.08 in 10.0 mi SSE 15.0 mph 23.0 mph N/A   Scattered Clouds
4:35 PM 75.2 °F - 53.6 °F 47% 30.07 in 10.0 mi South 18.4 mph 28.8 mph N/A   Mostly Cloudy
4:55 PM 73.4 °F - 53.6 °F 50% 30.07 in 10.0 mi SSE 16.1 mph 27.6 mph N/A   Scattered Clouds
5:15 PM 73.4 °F - 53.6 °F 50% 30.07 in 10.0 mi South 16.1 mph 23.0 mph N/A   Scattered Clouds
5:35 PM 73.4 °F - 53.6 °F 50% 30.06 in 10.0 mi South 17.3 mph 23.0 mph N/A   Scattered Clouds
5:55 PM 73.4 °F - 53.6 °F 50% 30.06 in 10.0 mi SSE 18.4 mph 21.9 mph N/A   Scattered Clouds
6:15 PM 73.4 °F - 53.6 °F 50% 30.06 in 10.0 mi South 18.4 mph 25.3 mph N/A   Scattered Clouds
6:35 PM 73.4 °F - 51.8 °F 47% 30.06 in 10.0 mi South 16.1 mph 23.0 mph N/A   Clear
6:55 PM 73.4 °F - 51.8 °F 47% 30.06 in 10.0 mi South 16.1 mph 25.3 mph N/A   Clear
7:15 PM 71.6 °F - 53.6 °F 53% 30.07 in 10.0 mi SSE 16.1 mph 21.9 mph N/A   Partly Cloudy
7:35 PM 71.6 °F - 53.6 °F 53% 30.07 in 10.0 mi South 17.3 mph 23.0 mph N/A   Partly Cloudy
7:55 PM 69.8 °F - 53.6 °F 56% 30.08 in 10.0 mi South 17.3 mph 23.0 mph N/A   Partly Cloudy
8:15 PM 68.0 °F - 53.6 °F 60% 30.08 in 10.0 mi South 15.0 mph 19.6 mph N/A   Clear
8:35 PM 66.2 °F - 53.6 °F 64% 30.08 in 10.0 mi South 13.8 mph 20.7 mph N/A   Partly Cloudy
8:55 PM 66.2 °F - 53.6 °F 64% 30.08 in 10.0 mi SSE 12.7 mph 18.4 mph N/A   Clear
9:15 PM 66.2 °F - 55.4 °F 68% 30.09 in 10.0 mi South 16.1 mph 20.7 mph N/A   Clear
9:35 PM 64.4 °F - 55.4 °F 73% 30.10 in 10.0 mi South 10.4 mph 19.6 mph N/A   Clear
9:55 PM 64.4 °F - 55.4 °F 73% 30.11 in 10.0 mi South 15.0 mph 24.2 mph N/A   Clear
10:15 PM 64.4 °F - 55.4 °F 73% 30.11 in 10.0 mi SSE 11.5 mph 16.1 mph N/A   Clear
10:35 PM 62.6 °F - 55.4 °F 77% 30.12 in 10.0 mi SSE 10.4 mph - N/A   Clear
10:55 PM 62.6 °F - 55.4 °F 77% 30.12 in 10.0 mi South 11.5 mph 17.3 mph N/A   Clear
11:15 PM 62.6 °F - 55.4 °F 77% 30.13 in 10.0 mi South 10.4 mph - N/A   Clear
11:35 PM 62.6 °F - 55.4 °F 77% 30.14 in 10.0 mi South 9.2 mph - N/A   Clear
11:55 PM 60.8 °F - 55.4 °F 82% 30.14 in 10.0 mi SSE 6.9 mph - N/A   Clear